Regional Weather Roundup
Issued by NWS

Home | Current Version | Previous Version | Text Only | Print | Product List | Glossary Off
Versions: 1 2 3 4 5 6 7 8 9 10 11 12 13 14 15 16 17 18 19 20 21 22 23 24 25 26 27 28 29 30 31 32 33 34 35 36 37 38 39 40 41 42 43 44 45 46 47 48 49 50

000
ASUS43 KMKX 191711
RWRWI

WISCONSIN REGIONAL WEATHER ROUNDUP
NATIONAL WEATHER SERVICE MILWAUKEE/SULLIVAN WI
1200 PM CDT SUN APR 19 2015

NOTE: "FAIR" INDICATES FEW OR NO CLOUDS BELOW 12,000 FEET WITH NO
SIGNIFICANT WEATHER AND/OR OBSTRUCTIONS TO VISIBILITY.

WIZ001-002-006>008-014>016-023>028-191800-
NORTHWEST WISCONSIN

CITY           SKY/WX    TMP DP  RH WIND       PRES   REMARKS
SUPERIOR ARPT  CLOUDY    38  37  99 NE13      29.69F WCI  30
ASHLAND        CLOUDY    45  42  89 N7        29.69F
HAYWARD        CLOUDY    53  38  56 SE12G20   29.67F
SIREN          CLOUDY    53  43  69 S10       29.65F
CUMBERLAND     CLOUDY    50  37  62 SE10G16   29.68F
RICE LAKE      CLOUDY    52  40  64 SE12      29.70F
CHETEK         CLOUDY    51  38  62 SE13G20   29.70F
LADYSMITH      CLOUDY    51  37  57 SE12G17   29.73F
EAU CLAIRE     CLOUDY    53  38  56 SE12      29.70F
MENOMONIE      CLOUDY    56  41  56 SE9       29.69F
NEW RICHMOND   CLOUDY    56  46  69 S14       29.66F
OSCEOLA        CLOUDY    55  47  74 S8        29.68F
$$

WIZ003>005-009-010-017-018-191800-
NORTH CENTRAL WISCONSIN

CITY           SKY/WX    TMP DP  RH WIND       PRES   REMARKS
MANITOWISH WTR CLOUDY    51  34  51 S10       29.73F
ARBOR VITAE    CLOUDY    55  34  45 SE14      29.74F
WOODRUFF       CLOUDY    55  34  45 SE14      29.74F
RHINELANDER    CLOUDY    54  32  43 SE9       29.77F
EAGLE RIVER    CLOUDY    52  30  43 SE7       29.76F
LAND O LAKES   CLOUDY    51  31  47 SE9       29.77F
PHILLIPS       LGT RAIN  46  39  78 SE5       29.72F
TOMAHAWK       CLOUDY    55  33  44 SE5       29.76F
MEDFORD        LGT RAIN  52  36  54 SE7       29.72F
MERRILL        CLOUDY    55  34  45 SE8       29.75F
$$

WIZ029-030-035-036-043>047-191800-
CENTRAL WISCONSIN

CITY           SKY/WX    TMP DP  RH WIND       PRES   REMARKS
WAUSAU         CLOUDY    59  34  39 SE14      29.73F
MOSINEE        PTSUNNY   57  34  41 SE10G16   29.76F
MARSHFIELD     CLOUDY    58  34  40 SE13      29.73F
STEVENS POINT  PTSUNNY   60  34  37 SE13G20   29.74F
WAUPACA        MOSUNNY   63  32  31 E13G18    29.77F
WAUTOMA        MOSUNNY   67  34  29 E10G20    29.74F
WISC RAPIDS    PTSUNNY   62  32  32 S9        29.74F
CAMP DOUGLAS   CLOUDY    61  36  39 E8        29.71F
$$

WIZ011>013-019>022-031-037>040-048>050-191800-
NORTHEAST WISCONSIN

CITY           SKY/WX    TMP DP  RH WIND       PRES   REMARKS
ANTIGO         PTSUNNY   56  34  42 SE15G23   29.78F
SHAWANO        MOSUNNY   59  32  36 SE15      29.82F
OCONTO         CLOUDY    48  35  62 E6        29.84F
STURGEON BAY   PTSUNNY   48  32  53 NE5       29.87F
GREEN BAY      PTSUNNY   58  33  39 SE18      29.82F
MANITOWOC      PTSUNNY   53  32  44 S12G20    29.82F
APPLETON       MOSUNNY   59  30  33 SE13      29.80F
CLINTONVILLE   MOSUNNY   57  32  38 SE9       29.80F
OSHKOSH        SUNNY     62  36  37 SE15G23   29.76F
$$

WIZ032>034-041-042-053>061-191800-
SOUTHWEST WISCONSIN

CITY           SKY/WX    TMP DP  RH WIND       PRES   REMARKS
LA CROSSE      CLOUDY    56  44  64 S3        29.70F
SPARTA         CLOUDY    60  37  42 E3        29.70F
VIROQUA        CLOUDY    58  37  44 SE9       29.70F
BOSCOBEL       CLOUDY    69  41  36 VRB5      29.69F
PRAIRIE DU CHI CLOUDY    61  39  44 E3        29.69F
PLATTEVILLE    PTSUNNY   67  42  40 SE6       29.68F
$$

WIZ056-057-062-063-064-067-068-191800-
SOUTH CENTRAL WISCONSIN

CITY           SKY/WX    TMP DP  RH WIND       PRES   REMARKS
REEDSBURG      PTSUNNY   64  39  40 E7        29.70F
BARABOO/DELLS  PTSUNNY   65  37  35 SE10      29.71F
LONE ROCK      PTSUNNY   66  41  40 E5        29.70F
MINERAL POINT  PTSUNNY   68  39  34 SE12      29.69F
MADISON        CLOUDY    67  38  34 SE12      29.71F
MIDDLETON      MOSUNNY   69  36  28 SE14      29.70F
WATERTOWN      MOSUNNY   67  39  35 E15G21    29.73F
MONROE         MOSUNNY   68  43  40 SE13      29.68F
JANESVILLE     SUNNY     70  36  28 SE17G23   29.70F
$$

WIZ051-052-058>065-066-070>072-191800-
SOUTHEAST WISCONSIN

CITY           SKY/WX    TMP DP  RH WIND       PRES   REMARKS
MILWAUKEE      PTSUNNY   52  34  50 NE7       29.78F
WAUKESHA       PTSUNNY   57  34  41 E12G20    29.78F
MILWAUKEE/TIMM SUNNY     55  28  35 E9        29.80F
RACINE         MOSUNNY   55  34  45 NE8       29.79F
BURLINGTON     MOSUNNY   62  34  35 E12G18    29.74F
KENOSHA        MOSUNNY   59  34  39 E15       29.76F
FOND DU LAC    SUNNY     62  34  35 SE20G28   29.76F
SHEBOYGAN      PTSUNNY   56  31  38 SE12G21   29.82F
WEST BEND      MOSUNNY   55  30  38 E13G20    29.79F
JUNEAU         MOSUNNY   63  37  37 SE16G23   29.75F
$$

LSZ147-162-191800-
LAKE SUPERIOR

STATION/POSITION TIME  TEMP    WIND        PRES    WAVE
                       AIR SEA DIR/SP/G            HT/PER
                 (UTC) (F)     (DEG/KT/KT) (MB)    (FT/S)
DEVILS ISLAND    1700   36      60/ 14/ 15 1007.1F
PORT WING        1640   37      40/ 16/ 17 1006.1F
SAXON HARBOR     1600   53     170/  4/  9 1006.1F
$$

LMZ867-665-643>646-191800-
LAKE MICHIGAN

STATION/POSITION TIME  TEMP    WIND        PRES    WAVE
                       AIR SEA DIR/SP/G            HT/PER
                 (UTC) (F)     (DEG/KT/KT) (MB)    (FT/S)
CHAMBERS ISLAND  1600   41      40/  8/ 10 1012.5F
NORTHPORT PIER   1600   40      60/ 12/ 17 1013.2F
SISTER BAY       1447   49     120/ 13/ 20   N/A
KEWAUNEE LAKESHO 1600   44      60/  4/  7 1010.9F
SHEBOYGAN LAKESH 1700   47      CALM  /  2 1010.0F
PORT WASHINGTON  1600   48      90/  1/  3 1011.5
MILWAUKEE LAKESH 1600   44      30/ 10/ 11   N/A
KENOSHA   LAKESH 1700   45      30/ 10/ 12 1008.1F
$$

TC  - TEMPERATURE IN CELSIUS
VSB - VISIBILITY IN STATUTE MILES
WCI - WIND CHILL INDEX
HX  - HEAT INDEX




USA.gov is the U.S. government's official web portal to all federal, state and local government web resources and services.